Find Starlink 5636

NORAD ID: 55454 Int'l Des: 2023-015 Owner: SPXS Country: US Constellation: starlink operational
LEOCIRCULAR

現在のビュー

3D地球を読み込み中...

About Starlink 5636

Starlink 5636 (NORAD 55454) is a starlink constellation satellite (v1.5) launched Feb 2, 2023 by SPXS of US. It operates in LEO, CIRCULAR orbit with a mass of 305.00 kg.

次回通過

Passes for default location (London). Set your location on the main map for personalized predictions.

高度履歴

Loading altitude history...

軌道要素

1 55454U 23015F 26265.77150007 .00000123 00000-0 13990-4 0 9994
2 55454 43.0013 295.6623 0001001 274.1898 85.8839 15.27577706200864
Epoch: Sep 22, 2026 • Age: 13 hours

現在のステータス

高度 482.8 km
遠地点 / 近地点 N/A
速度 7.63 km/s
衛星直下点 19.54°N, 27.77°W
打ち上げ日 Feb 2, 2023
運用期間 3.6 years
タイプ internet

技術仕様

分類 Payload
質量 305.00 kg
乾燥質量 290.00 kg
長さ 0.20 m
スパン 9.00 m
形状 ? Box + pan
製造者 SPXS
バスタイプ Starlink
フェーズステータス In Orbit
所有者/国 SPXS/US

Most Searched